WZZ374 EDDK-LQTZ

Flight info

Callsign WZZ374
Flight time N/A
Altitude 35000
Route KUMIK1R KUMIK L603 TESGA DCT ESATI DCT DETEV DCT DINKU DCT BESNI DCT LATLO DCT OBEDI DCT PODET DCT MOSAV/N0364F190 N131 DER
Aircraft A21N/M-SDE3FGHIRWY/LB1

Departure

Time 2026-04-25 17:20
Airport Cologne Bonn Airport (EDDK)

Arrival

Time N/A
Airport Tuzla International Airport (LQTZ)
Time Latitude Longitude Altitude Speed Heading
2026-04-25 16:29 50.88201 7.11908 228 ft 0 kts 216°
2026-04-25 17:05 50.88211 7.11919 228 ft 2 kts 216°
2026-04-25 17:05 50.88232 7.11935 229 ft 2 kts 182°
2026-04-25 17:05 50.88247 7.11932 229 ft 2 kts 158°
2026-04-25 17:06 50.88260 7.11920 229 ft 2 kts 134°
2026-04-25 17:06 50.88264 7.11911 229 ft 1 kts 122°
2026-04-25 17:06 50.88266 7.11906 229 ft 0 kts 125°
2026-04-25 17:08 50.88260 7.11920 229 ft 3 kts 126°
2026-04-25 17:08 50.88240 7.11962 229 ft 6 kts 127°
2026-04-25 17:09 50.88209 7.12027 230 ft 8 kts 126°
2026-04-25 17:09 50.88174 7.12102 231 ft 8 kts 126°
2026-04-25 17:09 50.88137 7.12184 233 ft 9 kts 124°
2026-04-25 17:09 50.88106 7.12259 236 ft 7 kts 112°
2026-04-25 17:10 50.88094 7.12322 238 ft 4 kts 111°
2026-04-25 17:10 50.88078 7.12363 240 ft 4 kts 124°
2026-04-25 17:10 50.88057 7.12408 242 ft 6 kts 131°
2026-04-25 17:10 50.88025 7.12461 244 ft 7 kts 135°
2026-04-25 17:11 50.87982 7.12522 246 ft 9 kts 137°
2026-04-25 17:11 50.87928 7.12596 247 ft 11 kts 148°
2026-04-25 17:11 50.87845 7.12617 248 ft 13 kts 166°
2026-04-25 17:11 50.87787 7.12707 249 ft 11 kts 99°
2026-04-25 17:12 50.87782 7.12829 249 ft 11 kts 121°
2026-04-25 17:12 50.87719 7.12924 249 ft 14 kts 137°
2026-04-25 17:12 50.87638 7.13041 248 ft 17 kts 137°
2026-04-25 17:12 50.87540 7.13185 245 ft 20 kts 137°
2026-04-25 17:13 50.87429 7.13344 245 ft 22 kts 137°
2026-04-25 17:13 50.87391 7.13401 245 ft 22 kts 137°
2026-04-25 17:13 50.87190 7.13691 248 ft 23 kts 137°
2026-04-25 17:13 50.87071 7.13865 251 ft 23 kts 137°
2026-04-25 17:14 50.86949 7.14042 254 ft 23 kts 137°
2026-04-25 17:14 50.86832 7.14212 258 ft 22 kts 137°
2026-04-25 17:14 50.86723 7.14369 261 ft 19 kts 137°
2026-04-25 17:14 50.86636 7.14412 264 ft 12 kts 223°
2026-04-25 17:15 50.86564 7.14386 265 ft 11 kts 156°
2026-04-25 17:15 50.86505 7.14466 267 ft 11 kts 136°
2026-04-25 17:15 50.86446 7.14553 270 ft 12 kts 137°
2026-04-25 17:15 50.86379 7.14651 274 ft 13 kts 137°
2026-04-25 17:16 50.86305 7.14757 277 ft 14 kts 137°
2026-04-25 17:16 50.86226 7.14872 280 ft 15 kts 137°
2026-04-25 17:16 50.86151 7.14981 281 ft 14 kts 138°
2026-04-25 17:16 50.86063 7.15107 281 ft 20 kts 137°
2026-04-25 17:17 50.85945 7.15279 282 ft 25 kts 137°
2026-04-25 17:17 50.85810 7.15475 284 ft 25 kts 138°
2026-04-25 17:17 50.85685 7.15654 287 ft 22 kts 136°
2026-04-25 17:17 50.85574 7.15816 290 ft 20 kts 138°
2026-04-25 17:18 50.85486 7.15960 293 ft 13 kts 97°
2026-04-25 17:18 50.85525 7.16070 296 ft 11 kts 47°
2026-04-25 17:18 50.85576 7.16158 297 ft 10 kts 47°
2026-04-25 17:18 50.85630 7.16253 300 ft 11 kts 47°
2026-04-25 17:19 50.85688 7.16309 303 ft 9 kts 356°
2026-04-25 17:19 50.85754 7.16231 302 ft 20 kts 318°
2026-04-25 17:19 50.86051 7.15798 294 ft 93 kts 317°
2026-04-25 17:19 50.86684 7.14884 273 ft 152 kts 317°
2026-04-25 17:20 50.87562 7.13620 530 ft 177 kts 319°
2026-04-25 17:20 50.88460 7.12342 1239 ft 176 kts 318°
2026-04-25 17:20 50.89367 7.11169 1913 ft 171 kts 333°
2026-04-25 17:20 50.90565 7.11036 2208 ft 186 kts 18°
2026-04-25 17:21 50.91746 7.12099 2555 ft 202 kts 28°
2026-04-25 17:21 50.92955 7.13295 3021 ft 211 kts 34°
2026-04-25 17:21 50.93939 7.15093 3491 ft 226 kts 57°
2026-04-25 17:21 50.94676 7.17383 3898 ft 242 kts 60°
2026-04-25 17:22 50.95426 7.19868 4283 ft 259 kts 60°
2026-04-25 17:22 50.95690 7.20738 4457 ft 263 kts 60°
2026-04-25 17:22 50.97041 7.25116 5633 ft 270 kts 60°
2026-04-25 17:22 50.97870 7.27768 6371 ft 273 kts 59°